Temp_Advection
nan nan nan nan nan nan nan nan nan nan nan nan nan nan nan nan nan nan nan nan nan nan nan nan nan nan nan nan nan nan nan nan nan nan nan nan nan nan nan nan nan nan nan nan nan nan nan nan nan
nan 0 0 0 -0 -0 -1 -0 -1 -1 -1 -2 -0 -0 -0 0 0 -0 -1 -1 -0 -0 -0 -0 0 0 0 0 0 1 0 0 0 0 0 0 0 0 0 0 0 0 0 0 -0 -0 -0 -0 nan
nan 0 -0 -0 -0 -1 -1 -1 -0 -1 -1 -1 -0 0 -0 -0 -0 -1 -1 -1 -1 -0 0 -0 0 0 0 0 0 1 1 0 0 0 0 0 0 0 0 0 0 0 0 0 0 0 -0 -0 nan
nan 0 0 0 -1 -1 -1 -1 0 -1 -3 -2 -0 0 0 0 -0 0 -0 -0 -0 -0 0 0 0 0 0 0 0 0 0 0 0 0 0 0 0 0 0 0 0 0 0 0 0 0 -0 -0 nan
nan -0 0 0 -1 -1 -1 -1 -0 -0 -2 -2 0 0 0 0 0 0 0 -0 0 0 0 0 0 0 0 0 0 1 1 1 1 0 0 0 0 0 0 0 0 0 0 0 0 -0 -0 -0 nan
nan 0 0 -0 -2 -1 -1 -1 -0 -1 -1 -0 -0 0 0 1 0 0 1 1 1 1 0 0 0 0 1 1 0 1 1 1 1 0 0 0 0 0 0 0 0 0 0 0 0 0 -0 0 nan
nan -0 -0 -0 -1 -1 -1 -0 -0 -1 -1 -1 0 -0 0 2 1 1 1 1 0 1 0 1 0 0 1 1 1 1 1 1 1 0 0 0 0 0 0 0 0 0 0 0 0 0 -0 0 nan
nan -0 -0 -0 -1 -2 -2 -1 -0 -0 -1 -1 0 -1 -1 -0 1 1 1 1 0 1 0 0 1 0 1 1 1 1 1 1 1 0 0 0 0 0 0 0 0 0 0 0 0 0 0 -0 nan
nan -0 -0 -0 -0 -2 -1 -1 -2 -1 -1 -2 -1 -0 0 -2 -0 -0 -0 -0 0 0 0 0 0 0 1 1 1 1 1 1 1 1 1 0 0 0 1 0 0 0 0 0 0 0 0 0 nan
nan -0 -1 -0 -0 -1 -1 -1 -1 -0 -1 -1 -1 0 1 0 0 -1 -1 -2 -2 -1 0 1 0 0 0 1 1 1 1 1 1 1 1 0 0 1 1 0 0 0 1 0 0 0 0 0 nan
nan -1 -1 -0 -1 -0 -0 -1 -1 0 -1 -1 -0 1 1 1 1 0 -1 -1 0 1 1 1 0 0 0 1 0 1 1 0 0 0 1 1 1 1 0 0 0 0 0 0 0 0 0 0 nan
nan -1 -0 -1 -1 0 -1 -1 -0 -0 -1 -0 -0 -0 1 0 -1 -1 0 2 2 1 1 0 0 -0 0 1 0 0 0 0 0 1 1 1 1 0 -0 0 0 0 0 0 0 0 0 0 nan
nan -1 -0 -0 -0 -0 -1 -0 -0 -1 -1 -1 -1 -0 0 -0 -1 -1 1 1 1 0 0 0 -0 0 0 0 0 0 1 1 1 1 0 1 0 0 -0 0 0 1 1 1 0 0 0 0 nan
nan -0 -0 -0 -0 -0 -0 -1 -1 -1 -1 -1 -1 -1 0 -0 -0 1 1 -0 -1 -1 -0 -0 -0 1 1 0 0 0 1 0 0 -0 0 0 0 0 0 0 0 1 1 0 1 1 1 1 nan
nan 0 -0 -1 -0 -0 0 0 -2 -2 -1 -0 -1 -1 -1 0 -0 -1 -1 -1 -1 -0 0 0 1 1 1 1 1 0 0 0 -1 -0 -1 -0 0 0 -0 0 1 1 0 0 1 1 1 1 nan
nan 0 -1 -0 -0 -0 0 -1 -2 -1 0 -0 -1 -0 -1 -2 -0 -0 -0 -0 1 1 0 1 2 1 1 1 0 1 0 -0 -1 -1 -0 1 0 0 0 0 1 1 1 0 0 1 0 1 nan
nan -0 -0 -1 -0 0 0 -1 -2 -1 0 -0 -1 -1 -1 -0 -1 -1 0 0 0 0 1 1 -0 -0 1 1 1 0 0 0 -0 -0 1 1 1 -0 -0 0 1 1 1 1 1 1 1 1 nan
nan -0 -0 -0 -0 0 0 -1 -1 -1 -1 -1 -1 -1 -0 -1 -2 -1 -0 -0 0 1 0 -0 1 2 4 2 1 0 1 0 -0 -0 0 0 0 -0 0 1 1 1 1 1 1 2 1 1 nan
nan 0 -0 -0 -0 -0 -0 -1 -1 -1 -1 -0 -1 -1 -1 -1 -3 -1 0 1 1 0 1 2 2 3 3 0 -2 -0 -1 -0 -1 -0 0 1 1 1 0 0 1 0 0 1 1 1 1 1 nan
nan 0 -1 -1 -0 0 0 -1 -1 -1 -1 -1 -1 -1 -1 -1 -1 -2 -0 2 0 1 1 0 -1 2 -0 -2 2 2 1 1 1 1 1 1 1 0 0 1 1 0 1 1 1 1 0 0 nan
nan -1 -0 -0 -0 0 0 -1 -2 -2 -1 -1 -1 -1 -1 -0 0 -1 -2 -0 2 1 -1 -1 1 2 1 6 5 1 1 1 -0 -1 -1 0 1 1 1 1 0 0 1 1 0 0 0 -0 nan
nan -1 0 -0 0 -0 -0 -1 -2 -0 -0 -0 -1 -1 -1 -1 -1 -0 -1 -1 1 0 -1 -1 2 3 6 7 0 -0 0 0 -1 0 1 2 1 1 1 1 1 1 1 1 0 1 1 -0 nan
nan 0 0 0 1 0 1 -0 -3 -0 -0 -0 -0 -1 -1 -0 -1 -1 -1 -1 0 2 3 2 3 4 7 3 2 2 0 1 2 2 2 1 0 1 1 1 1 1 1 0 1 1 1 -0 nan
nan 1 0 0 1 0 -1 -1 -1 -1 -1 -0 0 1 -1 -3 -2 -1 -2 -3 -1 1 2 4 4 5 9 5 3 -0 -0 1 -0 -0 0 -0 1 2 1 1 1 1 1 1 1 1 0 1 nan
nan 0 0 0 0 -1 -1 0 -1 -2 -1 -1 -1 -2 -2 -2 -4 -4 -3 -2 -2 0 3 4 2 7 7 3 0 0 1 1 -0 1 0 -0 -0 -0 -0 1 1 0 1 1 1 1 1 1 nan
nan 1 0 -0 -0 -1 -0 0 -1 2 -2 -0 -0 -0 -1 -2 -3 -4 -4 -3 -2 -1 1 2 3 7 3 1 1 1 1 1 1 0 -0 -1 -0 1 1 1 1 1 1 1 1 0 1 1 nan
nan 1 0 0 0 -0 -1 -1 0 -0 -1 -0 -0 -0 -1 -1 -1 -2 -2 -1 -3 -2 2 3 9 9 2 1 1 1 1 1 0 1 0 1 1 2 1 1 1 1 1 1 1 1 1 2 nan
nan -0 -0 0 0 0 0 0 1 -1 -0 -0 -0 0 0 -1 -1 -0 -1 -1 -0 0 2 7 10 3 0 0 1 1 1 0 1 0 0 1 2 2 1 1 2 1 1 2 2 2 2 1 nan
nan 0 -0 -0 0 0 -0 -0 -0 -0 -0 0 -0 0 0 0 -1 -1 0 0 -1 0 1 2 2 0 1 1 1 1 1 1 1 1 1 2 2 1 0 1 1 1 2 2 2 2 1 1 nan
nan nan nan nan nan nan nan nan nan nan nan nan nan nan nan nan nan nan nan nan nan nan nan nan nan nan nan nan nan nan nan nan nan nan nan nan nan nan nan nan nan nan nan nan nan nan nan nan nan
Wind_Speed
3 6 7 3 2 4 6 8 4 7 5 16 19 5 5 3 2 3 17 21 14 15 19 32 34 35 36 36 37 38 36 34 31 28 25 24 22 20 19 18 18 16 14 14 14 13 12 11 11
7 8 6 2 3 2 7 5 14 18 23 26 10 6 3 2 4 11 20 18 14 14 14 29 33 34 35 36 37 39 37 34 31 28 25 23 21 18 18 17 16 14 13 14 13 12 11 11 13
9 9 3 4 4 9 6 7 10 12 32 25 5 3 7 5 9 22 11 16 16 14 15 26 33 34 35 36 38 39 38 35 31 28 25 22 19 17 17 17 15 14 14 14 12 11 12 14 17
10 6 3 2 11 11 9 14 14 16 32 35 12 2 5 8 16 16 14 16 14 13 19 26 32 33 34 37 38 38 37 35 31 28 25 22 20 17 17 16 15 14 15 14 12 12 14 18 20
11 4 1 4 12 13 12 16 19 18 24 30 14 4 8 11 12 15 16 13 11 14 20 26 30 32 34 36 37 37 37 35 33 30 27 23 20 17 18 17 16 16 15 14 13 13 16 20 19
5 2 1 5 15 15 13 18 19 23 33 21 8 5 4 11 15 16 15 13 12 14 21 25 30 31 32 33 36 37 37 36 33 30 27 24 21 19 19 18 17 16 16 14 14 15 18 22 19
6 4 6 6 13 18 20 13 15 16 26 17 9 5 8 25 19 17 16 15 13 14 22 27 30 31 31 32 32 36 36 36 34 31 28 25 22 22 21 19 18 18 17 16 15 18 20 22 19
7 4 6 5 10 24 21 17 12 21 21 21 5 5 6 24 21 19 17 14 13 15 19 27 31 32 32 32 32 34 35 35 34 32 29 26 24 25 23 21 20 19 18 17 17 19 21 22 20
7 2 9 8 7 20 32 19 45 27 27 30 17 8 9 28 23 21 20 18 17 18 19 26 32 34 34 33 33 34 34 33 33 32 30 29 27 27 25 23 21 20 19 19 20 21 22 24 22
6 5 10 7 10 16 28 27 38 21 27 23 29 9 12 27 30 30 28 27 26 24 23 27 33 35 35 35 35 35 35 36 35 33 32 31 30 28 26 24 23 22 21 20 21 23 26 26 23
8 16 14 19 25 30 29 33 43 23 23 21 22 11 19 33 36 35 32 31 29 27 27 32 33 37 38 39 38 38 38 38 36 34 32 32 31 30 28 27 26 24 23 23 24 25 29 27 24
7 20 21 25 28 26 21 40 34 29 30 19 18 24 21 31 37 37 35 36 33 33 32 33 34 39 40 40 41 41 42 41 38 38 36 35 33 32 30 29 27 26 25 25 25 27 31 28 24
17 17 23 26 27 27 29 26 22 35 32 28 33 31 23 31 35 38 39 37 36 33 34 34 37 40 43 43 42 43 43 41 39 37 37 37 35 34 32 30 29 28 27 27 28 30 32 28 24
16 19 22 21 34 25 20 25 21 49 38 35 35 40 33 30 33 39 43 41 40 36 37 38 40 42 44 46 46 45 44 43 41 40 39 38 36 35 34 33 31 30 29 29 30 30 31 29 26
19 10 12 21 26 20 21 19 26 46 34 35 39 42 44 38 32 39 40 47 44 41 39 41 43 45 46 48 48 47 46 46 43 40 38 40 38 36 35 34 33 32 32 31 32 30 29 29 26
10 12 16 8 14 16 12 24 30 36 28 29 32 36 38 46 46 41 42 45 46 45 45 43 44 47 48 48 50 49 48 48 44 42 38 40 40 38 37 35 34 34 35 35 34 33 31 29 29
12 24 21 13 14 15 13 14 24 23 25 31 36 39 41 42 44 45 42 45 48 49 48 47 46 47 51 51 50 50 50 49 46 43 41 41 41 39 39 37 35 35 38 39 37 36 33 34 32
22 24 17 16 6 9 19 24 23 39 29 30 38 39 39 40 45 48 47 47 48 51 52 50 49 49 51 52 52 52 49 50 50 46 44 45 42 43 43 40 36 35 40 40 39 37 33 35 35
18 15 15 10 9 16 18 29 21 22 27 17 24 35 39 41 51 47 47 49 51 54 57 57 55 53 54 57 58 56 54 53 53 50 46 46 46 44 46 43 39 40 43 43 40 37 36 36 35
25 26 23 19 15 17 19 36 27 22 22 26 27 29 30 39 42 50 47 46 50 57 58 61 62 60 59 60 60 59 58 59 57 54 49 48 47 47 47 46 43 44 45 45 43 41 41 40 40
23 28 20 26 14 19 14 35 23 30 21 31 31 30 30 31 36 44 52 48 49 57 60 63 63 67 65 63 58 51 48 48 50 54 53 50 48 49 50 49 46 46 47 48 47 46 47 48 45
24 20 26 24 15 13 14 19 28 18 19 17 15 26 30 27 30 33 42 45 49 51 57 63 65 68 68 65 63 62 61 63 64 62 60 56 52 50 52 51 49 48 49 49 50 49 50 50 51
33 9 17 20 20 21 22 9 34 3 23 9 6 17 23 25 30 35 38 40 45 53 56 62 67 70 69 68 70 65 58 56 53 59 59 58 55 52 53 52 51 51 52 52 52 53 53 53 52
22 16 18 18 17 16 34 15 22 24 26 2 6 14 16 20 24 25 28 31 34 44 53 59 67 71 72 69 67 65 63 59 57 58 60 62 60 57 56 54 52 53 55 55 55 54 55 55 55
10 9 8 8 11 18 26 12 18 37 6 3 5 12 24 27 28 35 38 31 36 39 42 56 64 69 68 67 64 64 64 61 63 61 61 62 62 60 60 57 56 56 56 55 55 55 56 57 57
22 20 15 17 8 17 18 11 22 13 14 10 7 11 22 31 31 28 30 35 31 36 44 52 62 64 64 66 67 63 64 61 59 58 58 60 61 61 61 59 57 55 55 55 55 54 55 59 58
4 13 13 19 22 16 18 19 5 5 9 9 8 11 18 25 32 23 14 16 26 34 42 56 63 63 61 68 63 64 65 62 61 56 55 56 56 57 58 57 57 54 52 55 55 54 55 57 57
3 4 3 6 12 12 8 15 4 7 11 15 17 12 19 25 28 25 15 10 13 19 36 48 54 50 53 59 58 64 64 61 54 52 51 51 51 53 55 54 55 53 51 54 54 54 53 55 55
2 0 1 5 3 2 4 3 6 8 7 10 13 18 22 23 22 22 20 15 10 10 15 30 38 49 52 54 56 58 57 52 50 45 46 50 51 53 49 48 49 51 52 51 51 52 53 52 52
2 1 4 3 3 3 3 5 9 11 8 9 16 23 23 24 24 19 14 14 15 9 10 16 28 34 41 48 51 50 49 48 45 43 44 45 47 47 44 42 45 47 47 47 49 49 50 48 47
Wind_Direction
230 208 217 255 33 59 261 251 252 283 298 247 248 215 190 168 221 214 145 162 168 176 183 186 185 185 182 178 178 176 174 173 174 172 170 170 168 169 167 164 162 160 153 147 142 141 143 142 138
188 181 194 163 117 263 263 237 252 260 263 282 204 180 182 199 143 158 157 171 181 178 182 183 186 187 185 182 180 180 178 177 176 175 174 175 171 168 165 163 163 158 152 147 145 144 142 136 132
171 171 171 149 184 226 242 232 235 304 306 299 225 203 144 177 165 156 160 160 170 178 183 185 187 188 187 185 183 183 181 179 178 179 179 179 174 168 163 166 164 160 157 154 151 147 141 136 137
169 173 234 176 246 249 243 262 310 302 298 302 248 202 109 209 161 161 166 167 171 174 180 185 187 190 189 188 187 185 184 181 182 182 183 183 178 170 167 169 169 168 164 158 157 150 143 138 147
167 151 231 236 257 264 261 274 289 277 274 268 234 226 139 166 176 172 176 170 179 176 179 182 187 192 193 192 189 187 187 186 186 187 189 187 182 173 175 176 176 173 167 165 160 150 142 141 157
162 151 223 239 256 267 275 282 291 295 300 253 208 148 161 183 186 174 179 180 183 181 180 184 188 192 194 194 191 189 189 188 188 189 190 190 183 182 183 184 180 176 171 168 163 155 148 150 165
157 116 229 231 273 290 275 298 290 290 311 281 217 123 159 159 179 185 178 184 178 179 184 185 190 192 195 195 194 191 192 190 191 191 192 193 186 187 189 188 184 179 175 172 166 157 152 157 171
204 114 263 230 272 278 286 304 283 296 313 315 271 158 183 177 180 177 178 187 190 188 192 190 192 192 195 196 195 193 195 194 193 194 194 194 191 193 192 190 186 181 179 175 166 161 156 162 176
217 159 252 239 235 270 288 293 293 293 289 302 302 187 233 173 180 181 182 186 201 199 198 195 194 193 194 195 195 195 197 198 198 197 197 197 195 194 193 192 187 184 181 177 170 164 160 169 178
182 205 235 227 242 266 276 279 280 297 290 289 298 278 194 186 194 194 196 201 202 205 204 200 197 195 195 196 196 197 197 198 198 199 200 203 197 197 195 193 190 186 182 177 172 165 163 173 181
228 240 261 265 262 264 268 272 275 275 274 268 274 255 186 187 196 204 206 212 218 209 207 201 201 200 198 199 199 198 199 200 201 203 207 208 195 199 195 197 192 188 185 181 176 169 166 176 183
277 270 265 268 271 269 270 274 276 275 263 277 285 283 236 206 207 210 212 210 210 209 208 209 205 202 202 202 203 203 203 204 206 210 210 205 200 201 198 201 196 193 191 187 182 176 171 183 187
260 264 272 280 276 274 283 279 282 286 280 283 284 279 262 231 227 232 225 220 212 212 211 215 208 204 205 205 206 207 207 210 213 209 205 212 205 204 202 203 199 196 194 190 185 183 177 187 190
264 278 273 279 270 273 270 275 275 271 283 286 282 280 273 253 241 230 225 223 219 219 214 214 213 210 207 209 209 210 210 212 210 208 211 215 213 209 206 205 200 197 196 191 193 191 187 192 196
259 282 280 264 274 273 281 272 256 265 273 271 275 275 272 264 247 233 235 231 227 225 222 218 217 213 212 211 212 213 214 215 216 215 218 220 219 213 213 208 203 199 197 193 193 191 190 193 195
292 280 262 258 246 257 234 258 266 266 270 265 262 263 262 264 258 252 240 232 233 227 221 223 220 217 215 214 213 215 216 217 219 217 223 229 224 218 215 213 207 201 199 197 197 195 194 197 198
218 254 249 272 243 266 253 266 270 272 256 261 265 263 258 255 248 249 247 234 231 229 226 223 221 222 219 214 216 218 217 217 221 220 220 228 230 225 218 215 211 205 201 201 200 199 202 199 198
239 243 248 244 273 233 262 260 263 272 262 257 259 261 257 249 249 247 244 242 236 232 229 228 226 223 221 217 216 217 219 219 221 224 222 226 232 227 219 217 215 211 205 203 202 203 200 201 197
252 266 254 241 228 267 274 273 263 261 268 255 257 256 256 255 260 258 245 242 235 233 229 227 222 222 216 213 213 216 217 218 221 226 223 225 227 228 219 217 213 213 208 209 206 202 201 193 196
237 252 253 262 264 264 276 276 274 264 258 262 261 259 254 250 252 257 251 244 229 229 229 227 226 223 219 218 221 218 217 215 218 222 224 224 225 224 222 220 216 214 208 208 207 207 196 197 197
232 240 255 256 257 257 273 279 276 269 265 258 257 262 258 261 257 251 249 244 238 220 223 226 230 224 222 221 213 207 209 211 212 223 226 225 224 222 223 223 219 216 213 210 210 210 207 198 197
247 223 242 251 254 258 193 275 269 275 264 255 269 267 267 272 260 253 247 242 232 228 226 227 227 227 224 217 211 210 210 207 216 220 223 224 221 221 221 224 222 220 218 215 215 215 213 210 202
250 200 251 254 251 258 247 229 273 262 274 261 281 273 276 267 264 266 260 255 255 239 229 223 223 223 223 216 217 211 206 211 210 216 220 222 220 219 219 223 224 222 222 220 218 217 215 218 217
255 260 263 264 263 257 253 221 273 266 257 68 245 267 323 315 296 284 281 271 255 251 236 224 219 220 219 217 211 210 211 208 207 213 215 220 220 218 218 220 224 224 222 222 222 221 220 222 222
253 255 256 239 231 243 257 232 231 267 1 18 25 353 351 341 311 298 287 282 268 252 240 223 218 215 211 208 207 208 213 212 215 215 214 214 217 218 219 219 221 223 223 223 223 223 223 225 225
236 235 245 258 248 249 265 237 240 249 92 86 50 1 358 359 344 315 291 280 280 256 245 231 223 214 206 206 208 207 211 211 213 214 219 221 221 223 222 220 220 223 223 223 224 226 228 227 226
188 221 259 255 254 259 256 261 285 111 60 38 22 1 350 352 357 354 313 271 273 262 242 232 226 213 205 207 203 207 211 212 215 216 219 221 222 224 224 223 222 223 224 225 223 226 229 228 228
58 10 243 208 242 255 221 240 211 44 8 356 356 338 338 341 356 10 20 330 280 246 233 225 219 202 201 202 200 208 210 211 217 217 219 225 227 224 225 227 224 224 224 225 224 224 228 231 230
210 112 65 296 142 131 347 312 346 1 349 334 342 321 314 322 329 351 8 26 358 285 241 225 212 202 202 207 209 208 207 210 214 219 220 224 225 223 225 227 227 226 224 224 223 226 228 230 231
185 330 188 174 188 142 161 267 198 226 251 317 322 318 312 311 314 325 332 350 13 355 251 223 212 205 207 205 206 207 212 211 212 217 221 226 227 226 227 226 225 226 226 226 227 226 228 227 228
Height
1506 1508 1511 1512 1523 1524 1521 1502 1489 1485 1481 1467 1466 1466 1463 1461 1464 1474 1464 1467 1470 1474 1477 1482 1487 1491 1493 1496 1500 1502 1504 1508 1512 1515 1519 1521 1523 1526 1529 1531 1533 1535 1537 1538 1539 1540 1542 1542 1543
1505 1507 1510 1511 1527 1531 1509 1488 1489 1479 1471 1466 1464 1461 1461 1461 1460 1461 1463 1464 1468 1471 1474 1479 1485 1490 1493 1495 1498 1500 1502 1506 1511 1514 1518 1521 1523 1525 1528 1531 1533 1535 1536 1538 1539 1540 1542 1543 1543
1504 1506 1510 1513 1523 1518 1510 1481 1474 1472 1470 1470 1461 1457 1457 1458 1459 1460 1462 1462 1465 1468 1472 1478 1484 1488 1492 1495 1497 1499 1500 1503 1508 1512 1516 1520 1523 1525 1527 1530 1533 1534 1536 1538 1539 1540 1542 1544 1543
1504 1507 1510 1514 1514 1493 1489 1475 1481 1476 1467 1463 1458 1455 1456 1456 1457 1460 1460 1461 1464 1466 1471 1476 1482 1486 1490 1493 1496 1498 1500 1502 1506 1511 1515 1518 1521 1524 1526 1529 1532 1534 1536 1538 1539 1540 1542 1544 1543
1504 1505 1513 1514 1504 1484 1480 1479 1481 1475 1467 1462 1456 1453 1453 1453 1455 1458 1459 1460 1461 1465 1470 1474 1480 1485 1488 1491 1494 1497 1499 1501 1504 1508 1513 1517 1520 1523 1526 1529 1531 1533 1535 1537 1539 1541 1542 1544 1543
1502 1503 1516 1517 1497 1480 1474 1477 1477 1471 1461 1452 1453 1451 1453 1453 1455 1455 1458 1459 1462 1465 1468 1473 1478 1483 1487 1490 1493 1495 1497 1499 1503 1506 1510 1515 1519 1522 1525 1528 1530 1533 1535 1536 1539 1541 1542 1544 1543
1498 1505 1507 1501 1492 1480 1468 1472 1473 1468 1458 1452 1447 1450 1452 1451 1452 1453 1456 1458 1461 1465 1468 1472 1476 1480 1484 1488 1492 1495 1497 1498 1501 1504 1508 1514 1517 1520 1523 1526 1529 1532 1534 1535 1538 1540 1542 1543 1543
1495 1498 1499 1496 1492 1477 1463 1468 1469 1469 1459 1454 1448 1451 1453 1450 1451 1452 1454 1459 1461 1464 1468 1470 1474 1477 1482 1486 1490 1494 1498 1499 1500 1503 1506 1511 1515 1518 1520 1524 1527 1531 1533 1535 1537 1540 1541 1543 1542
1492 1500 1495 1490 1490 1469 1462 1467 1451 1465 1461 1453 1452 1444 1442 1446 1451 1453 1453 1455 1459 1461 1464 1468 1471 1474 1479 1484 1488 1492 1496 1500 1501 1502 1505 1508 1512 1515 1518 1521 1525 1529 1532 1534 1536 1538 1540 1541 1542
1488 1494 1484 1477 1476 1469 1462 1463 1453 1461 1454 1452 1449 1447 1440 1442 1444 1444 1446 1449 1452 1455 1458 1463 1467 1471 1476 1481 1485 1489 1492 1496 1498 1501 1503 1505 1510 1512 1516 1520 1524 1527 1530 1532 1536 1537 1538 1539 1541
1480 1479 1474 1471 1472 1468 1461 1454 1450 1455 1447 1450 1447 1447 1447 1443 1440 1440 1441 1442 1443 1449 1454 1458 1462 1466 1471 1475 1480 1485 1487 1491 1495 1499 1502 1504 1506 1509 1513 1517 1521 1525 1528 1530 1533 1536 1538 1539 1541
1477 1469 1469 1467 1466 1463 1456 1451 1442 1445 1439 1444 1444 1445 1442 1442 1443 1439 1438 1440 1442 1443 1449 1454 1458 1461 1466 1471 1475 1480 1483 1485 1490 1494 1497 1499 1503 1506 1510 1514 1518 1522 1525 1528 1531 1534 1536 1538 1540
1469 1465 1463 1461 1457 1455 1454 1447 1444 1429 1433 1437 1437 1438 1438 1435 1436 1438 1436 1437 1437 1441 1444 1448 1452 1455 1460 1465 1470 1474 1479 1483 1486 1490 1493 1496 1498 1503 1507 1512 1516 1520 1522 1526 1528 1530 1533 1536 1538
1461 1461 1458 1454 1442 1447 1448 1441 1444 1417 1426 1426 1427 1425 1429 1429 1429 1430 1431 1433 1435 1436 1436 1440 1444 1450 1453 1457 1463 1469 1474 1479 1483 1487 1490 1493 1496 1501 1504 1507 1512 1516 1520 1524 1527 1529 1530 1534 1536
1458 1457 1453 1440 1437 1438 1442 1435 1425 1415 1424 1421 1418 1415 1416 1417 1419 1419 1421 1421 1426 1428 1431 1432 1437 1443 1447 1452 1457 1463 1469 1475 1479 1483 1488 1490 1494 1499 1502 1505 1508 1513 1517 1521 1525 1528 1529 1533 1535
1459 1453 1448 1431 1433 1427 1435 1424 1408 1412 1414 1411 1408 1406 1406 1405 1407 1408 1410 1412 1416 1422 1423 1426 1431 1436 1441 1447 1451 1456 1462 1468 1473 1479 1483 1486 1490 1495 1499 1503 1506 1510 1513 1517 1521 1524 1525 1530 1534
1450 1435 1438 1436 1428 1428 1429 1417 1402 1405 1406 1403 1400 1397 1395 1394 1396 1397 1399 1403 1406 1409 1415 1420 1424 1428 1433 1439 1445 1450 1455 1462 1467 1473 1478 1481 1485 1491 1496 1500 1504 1507 1509 1512 1516 1520 1523 1524 1530
1432 1432 1432 1435 1428 1424 1420 1408 1403 1394 1398 1396 1391 1387 1385 1384 1383 1387 1391 1394 1399 1402 1405 1409 1413 1418 1424 1432 1438 1443 1450 1456 1460 1465 1471 1475 1478 1483 1488 1494 1500 1506 1508 1509 1512 1516 1521 1523 1525
1425 1425 1424 1424 1424 1423 1417 1393 1393 1390 1383 1383 1380 1377 1376 1377 1375 1377 1382 1385 1388 1393 1396 1399 1405 1409 1415 1422 1428 1432 1436 1444 1450 1455 1462 1467 1471 1476 1483 1488 1493 1496 1500 1506 1510 1514 1517 1522 1523
1423 1421 1417 1418 1421 1420 1416 1378 1377 1378 1374 1372 1371 1368 1369 1370 1371 1371 1371 1374 1374 1376 1383 1386 1392 1397 1402 1408 1412 1419 1423 1431 1438 1444 1452 1458 1464 1469 1474 1480 1486 1490 1493 1499 1503 1507 1512 1516 1518
1414 1409 1414 1413 1417 1410 1415 1379 1372 1355 1361 1361 1359 1361 1364 1362 1361 1362 1362 1364 1364 1362 1369 1374 1378 1383 1388 1396 1407 1416 1424 1431 1435 1438 1441 1447 1454 1460 1466 1471 1478 1483 1488 1491 1496 1499 1503 1505 1511
1406 1401 1402 1405 1415 1411 1406 1386 1350 1351 1349 1349 1357 1359 1355 1355 1356 1354 1354 1354 1355 1352 1355 1360 1366 1371 1377 1385 1391 1398 1399 1405 1411 1417 1425 1432 1442 1450 1458 1465 1470 1476 1481 1485 1489 1494 1497 1499 1500
1378 1396 1394 1394 1396 1398 1392 1401 1311 1348 1342 1348 1355 1349 1348 1348 1348 1345 1344 1344 1345 1345 1342 1346 1353 1359 1365 1370 1376 1383 1391 1398 1407 1412 1419 1427 1432 1439 1449 1456 1463 1468 1472 1478 1482 1486 1489 1493 1495
1381 1391 1392 1391 1392 1399 1365 1388 1359 1339 1326 1351 1343 1343 1345 1342 1339 1339 1339 1340 1338 1338 1337 1336 1340 1346 1352 1359 1366 1372 1378 1386 1394 1400 1406 1414 1421 1427 1434 1445 1452 1459 1465 1470 1475 1480 1484 1486 1491
1386 1391 1393 1392 1387 1370 1345 1371 1361 1306 1340 1348 1353 1347 1342 1338 1333 1328 1325 1328 1330 1328 1326 1330 1333 1335 1342 1350 1357 1363 1369 1377 1381 1387 1392 1402 1412 1418 1422 1431 1439 1446 1454 1461 1469 1474 1479 1481 1485
1371 1379 1384 1373 1372 1362 1345 1350 1331 1331 1344 1349 1350 1348 1343 1338 1332 1325 1320 1319 1319 1319 1319 1317 1321 1328 1334 1339 1346 1355 1362 1369 1376 1383 1386 1392 1400 1409 1416 1422 1430 1437 1445 1453 1461 1468 1472 1475 1478
1369 1370 1366 1367 1364 1369 1355 1338 1327 1338 1344 1347 1347 1344 1341 1339 1333 1321 1314 1311 1310 1310 1308 1308 1308 1314 1323 1327 1338 1346 1353 1358 1364 1375 1382 1387 1394 1402 1409 1417 1423 1429 1437 1443 1451 1459 1463 1469 1474
1373 1379 1373 1361 1359 1350 1342 1334 1337 1349 1349 1346 1343 1343 1339 1337 1333 1323 1313 1309 1306 1306 1306 1302 1306 1313 1319 1325 1330 1336 1342 1352 1363 1370 1377 1381 1388 1395 1401 1410 1417 1422 1429 1435 1443 1450 1455 1462 1465
1383 1380 1385 1389 1378 1377 1381 1355 1360 1359 1355 1352 1347 1346 1342 1337 1336 1328 1317 1309 1306 1307 1309 1313 1313 1309 1313 1319 1329 1333 1338 1348 1356 1366 1371 1375 1381 1386 1396 1404 1411 1417 1422 1428 1436 1442 1448 1454 1459
1377 1377 1379 1381 1383 1378 1380 1369 1359 1358 1355 1349 1344 1342 1341 1337 1336 1332 1323 1314 1309 1305 1306 1313 1318 1320 1321 1325 1319 1333 1338 1343 1351 1360 1366 1370 1376 1382 1391 1399 1405 1410 1416 1423 1429 1435 1440 1447 1451